Home   Weather   Saint George's   Past weeks

Flag for Grenada Past Weather in Saint George's, Grenada — Yesterday and Last 2 Weeks

Now
82 °F

Passing clouds.


Feels Like: 87 °F
Forecast: N/A
Wind: 12 mph from East

Location: Point Salines Airport

Current Time: Jan 16, 2017 at 6:11:14 pm

Latest Report: Jan 16, 2017 at 5:00 pm


Visibility: N/A

Pressure: 29.89 "Hg

Humidity: 70%

Dew Point: 72 °F

Location of Saint George'sLocation

Past Weather in Saint George's — Graph

°F

Saint George's Temperature Yesterday

Maximum temperature yesterday: 84 °F (at 10:00 am)
Minimum temperature yesterday: 72 °F (at 12:00 am)
Average temperature yesterday: 78 °F

High & Low Weather Summary for the Past Weeks

 TemperatureHumidityPressure
High86 °F (Jan 2, 12:00 pm)100% (Jan 6, 1:00 pm)30.04 "Hg (Jan 6, 1:00 pm)
Low70 °F (Jan 14, 1:00 am)59% (Jan 12, 1:00 pm)29.86 "Hg (Jan 3, 2:00 pm)
Average79 °F81%29.93 "Hg
* Reported Jan 1 5:00 pm — Jan 16 5:00 pm, Saint George's, Weather by CustomWeather, © 2017

Note: Actual official high and low records may vary slightly from our data, if they occured in-between our weather recording intervals... More about our weather records

Advertising

Saint George's Weather History for the Previous 24 Hours

Scroll right to see more
 ConditionsComfort  
Time TempWeatherWind HumidityBarometerVisibility
5:00 pm
Mon, Jan 16
82 °FPassing clouds.12 mph70%29.89 "HgN/A
4:00 pm82 °FPassing clouds.20 mph70%29.86 "HgN/A
3:00 pm82 °FPassing clouds.18 mph70%29.86 "HgN/A
2:00 pm84 °FPassing clouds.17 mph70%29.89 "HgN/A
1:00 pm86 °FPassing clouds.16 mph66%29.89 "HgN/A
12:00 pm86 °FScattered clouds.17 mph66%29.92 "HgN/A
11:00 am84 °FScattered clouds.18 mph70%29.95 "HgN/A
10:00 am84 °FPartly sunny.16 mph70%29.95 "HgN/A
9:00 am82 °FPartly sunny.16 mph74%29.95 "HgN/A
8:00 am77 °FPassing clouds.8 mph83%29.92 "HgN/A
6:00 am77 °FPassing clouds.8 mph83%29.89 "HgN/A
5:00 am73 °FPassing clouds.6 mph89%29.86 "HgN/A
4:00 am75 °FPassing clouds.6 mph89%29.86 "HgN/A
2:00 am75 °FPassing clouds.6 mph89%29.89 "HgN/A
1:00 am75 °FPassing clouds.6 mph89%29.89 "HgN/A
12:00 am75 °FPassing clouds.8 mph89%29.92 "HgN/A
11:00 pm
Sun, Jan 15
75 °FPassing clouds.6 mph89%29.92 "HgN/A
10:00 pm77 °FPassing clouds.6 mph83%29.92 "HgN/A
9:00 pm75 °FPassing clouds.2 mph83%29.92 "HgN/A
8:00 pm77 °FPassing clouds.6 mph83%29.89 "HgN/A
7:00 pm77 °FPassing clouds.7 mph79%29.86 "HgN/A
6:00 pm79 °FPassing clouds.9 mph79%29.86 "HgN/A
Weather by CustomWeather, © 2017

See weather overviewHow to use our weather pages